Location: Villingen
(48.0639°N, 8.4609°E)
Time: 15:44:33
(UTC+01:00)

Tiangong 2 - Visible Passes

Search period start: 23 November 2017 00:00
Search period end: 03 December 2017 00:00
Orbit: 386 x 392 km, 42.8° (Epoch: 22 November)

Date Brightness Start Highest point End Pass type
(mag) Time Alt. Az. Time Alt. Az. Time Alt. Az.
25 Nov 4.7 07:11:29 10° SSE 07:11:44 10° SSE 07:11:59 10° SSE visible
27 Nov 4.0 06:49:52 10° SSW 06:51:50 15° SSE 06:53:48 10° ESE visible
28 Nov 4.2 05:53:08 10° SSE 05:53:52 11° SSE 05:54:36 10° SE visible
29 Nov 3.4 06:29:27 10° SW 06:31:57 21° SSE 06:34:27 10° ESE visible
30 Nov 3.6 05:33:25 15° SSE 05:33:54 16° SSE 05:35:57 10° ESE visible
30 Nov 2.8 07:07:20 10° WSW 07:10:11 30° S 07:13:03 10° ESE visible
01 Dec 2.9 06:10:28 18° SSW 06:12:04 26° S 06:14:49 10° ESE visible
02 Dec 3.8 05:15:06 18° SE 05:15:06 18° SE 05:16:29 10° ESE visible
02 Dec 2.6 06:47:26 10° WSW 06:50:20 31° S 06:53:13 10° ESE visible
